ONEWEB-0094, 45450

Orbit data source: Space-Track

ONEWEB-0094, 45450 is a payload satellite owned by One Web (UK) in LEO that was launched on Sat, 21 Mar 2020 UTC via a SOYUZ-2-1B launch vehicle from the Tyuratam Missile And Space Complex (TTMTR). Payload-class satellites include a variety of spacecraft equipped with specific instruments for various scientific and technological missions. These include communications satellites like Starlink; space stations such as the ISS; scientific satellites like the Hubble; Earth observation satellites from companies like Planet Labs, Umbra, and HawkEye 360; GPS; miniature CubeSats for education and research; and military/defense satellites.

Loading next visibility...
Identifier
45450, 2020-020AC
Orbit
LEO
Last TLE update
21 hours ago
Origin
Manufacturer
One Web
Mission
Operational Commercial Communications
Bus & Motor
ARROW, Unknown motor
Mass
148 kg wet, ~140 kg dry
Launch date (UTC)
2020-03-21 (5 years ago)
Launch vehicle
SOYUZ-2-1B
Launch site
Tyuratam Missile And Space Complex (TTMTR)
Object type
Payload
Rocket body
Debris
Shape & HBR
Trap Box + 2 Pan, 5 m
Radar Cross Section
2.957 m², Medium (>0.1 m² and < 1m²)

Expand to show TLE details & history

TLE from 21 hours ago
0 ONEWEB-0094
1 45450U 20020AC  25128.38960618  .00000026  00000-0  34785-4 0  9990
2 45450  87.9043  86.4401 0002088  80.8407 279.2961 13.17651014253004
Epoch: 2025-05-08T09:21Z
Definitive object data (Epoch: 2025-05-08T09:21:01.973Z)
Latitude
-0.00002°
Longitude
79.72108°
Altitude
1,196.349 km
Speed
7.256 km/s
True Right ascension
05h 45m 45s
True Declination
0° 00' 00"
Sunlit
Object was in daylight at TLE epoch
Visualization TLE readout
Latitude
-22.07961°
Longitude
-99.60791°
Altitude
1,202.87 km
Speed
7.251 km/s
Apparent Right ascension
20h 44m 56s
Apparent Declination
-52° 36' 06"
Sunlit
Object is in full shadow
Visualization observer readout
Local Sidereal Time
14:33:57
Azimuth
134.234° SE
Elevation
-32.146°
Doppler factor
1
Orbital elements
Apogee altitude
1,192.395 km
Perigee altitude
1,189.234 km
Semi-major axis
7,568.951 km
Eccentricity
0.0002088
Inclination
87.9043°
RAAN
86.4401°
Arg. of periapsis
80.8407°
True anomaly
279.27249°
Mean anomaly
279.2961°
Eccentric anomaly
279.28429°
Mean motion
3.29602 °/min
BSTAR
0.000034785
Orbital period
109.22 mins
Loading maneuver chart data...
Loading SW <> Apogee altitude chart data...
Loading historical data...
Loading historical data...
Loading historical data...
Loading historical data...
Loading historical data...
Loading historical data...
Loading historical data...

ONEWEB-0094 Visibility forecast

Observer location: undefined°, undefined°

Span
Click to sort rows by Start time (UTC) header in descending order
Start Az.
Max El. time (UTC)
Max El. Az.
Max El.
End time (UTC)
End Az.
9 mins2025-05-09 07:50:07.833Z31.165° NE2025-05-09 07:55:07.833Z76.337° E18.843°2025-05-09 07:59:07.833Z113.68° SE
13 mins2025-05-09 09:39:07.833Z353.291° N2025-05-09 09:45:07.833Z266.394° W43.297°2025-05-09 09:52:07.833Z191.443° SSW
8 mins2025-05-09 20:08:07.833Z108.07° ESE2025-05-09 20:11:07.833Z78.407° E19.883°2025-05-09 20:16:07.833Z31.914° NE
13 mins2025-05-09 21:54:07.833Z192.348° SSW2025-05-09 22:00:07.833Z273.658° WNW42.581°2025-05-09 22:07:07.833Z354.986° N
|